When you browse on this site, cookies collect data to enhance your experience and personalize the content and advertising you see.
Visit our Privacy Policy to learn more. By continuing to use the site, you agree to this use of cookies and data.

Tiempo cada hora Melipilla

Hoy, 15 Agosto, Sábado

Tiempo Temperatura Precipitaciones Viento Presión Humedad
00:00 +6°C° 0 mm 0 mps 749 mmHg 92%
01:00 +7°C° 0 mm 1 mps 749 mmHg 92%
02:00 +6°C° 0 mm 1 mps 749 mmHg 92%
03:00 +6°C° 0 mm 1 mps 749 mmHg 92%
04:00 +6°C° 0 mm 1 mps 749 mmHg 92%
05:00 +6°C° 0 mm 1 mps 749 mmHg 92%
06:00 +6°C° 0 mm 1 mps 749 mmHg 92%
07:00 +6°C° 0 mm 1 mps 749 mmHg 92%
08:00 +8°C° 0 mm 1 mps 749 mmHg 85%
09:00 +10°C° 0 mm 1 mps 749 mmHg 78%
10:00 +13°C° 0 mm 2 mps 749 mmHg 72%
11:00 +14°C° 0 mm 2 mps 748 mmHg 69%
12:00 +15°C° 0 mm 2 mps 748 mmHg 66%
13:00 +16°C° 0 mm 2 mps 747 mmHg 63%
14:00 +15°C° 0 mm 2 mps 747 mmHg 66%
15:00 +15°C° 0 mm 2 mps 747 mmHg 68%
16:00 +14°C° 0 mm 3 mps 747 mmHg 71%
17:00 +13°C° 0 mm 2 mps 748 mmHg 76%
18:00 +11°C° 0 mm 1 mps 748 mmHg 82%
19:00 +9°C° 0 mm 1 mps 748 mmHg 87%
20:00 +8°C° 0 mm 1 mps 748 mmHg 87%
21:00 +8°C° 0 mm 1 mps 748 mmHg 87%
22:00 +8°C° 0 mm 1 mps 748 mmHg 88%
23:00 +7°C° 0 mm 1 mps 748 mmHg 88%

Mañana, 16 Agosto, Domingo

Tiempo Temperatura Precipitaciones Viento Presión Humedad
00:00 +7°C° 0 mm 1 mps 748 mmHg 87%
01:00 +7°C° 0 mm 1 mps 748 mmHg 87%
02:00 +7°C° 0 mm 1 mps 747 mmHg 87%
03:00 +6°C° 0 mm 1 mps 747 mmHg 86%
04:00 +6°C° 0 mm 1 mps 747 mmHg 86%
05:00 +6°C° 0 mm 1 mps 747 mmHg 85%
06:00 +6°C° 0 mm 1 mps 747 mmHg 84%
07:00 +6°C° 0 mm 1 mps 747 mmHg 83%
08:00 +9°C° 0 mm 1 mps 747 mmHg 77%
09:00 +11°C° 0 mm 1 mps 747 mmHg 70%
10:00 +13°C° 0 mm 1 mps 747 mmHg 64%
11:00 +15°C° 0 mm 2 mps 747 mmHg 62%
12:00 +16°C° 0 mm 2 mps 747 mmHg 60%
13:00 +17°C° 0 mm 2 mps 747 mmHg 58%
14:00 +16°C° 0 mm 2 mps 747 mmHg 62%
15:00 +16°C° 0 mm 2 mps 747 mmHg 66%
16:00 +15°C° 0 mm 2 mps 747 mmHg 69%
17:00 +13°C° 0 mm 2 mps 747 mmHg 75%
18:00 +11°C° 0 mm 1 mps 747 mmHg 81%
19:00 +9°C° 0 mm 1 mps 747 mmHg 86%
20:00 +7°C° 0 mm 0 mps 747 mmHg 86%
21:00 +7°C° 0 mm 0 mps 747 mmHg 87%
22:00 +7°C° 0 mm 0 mps 748 mmHg 87%
23:00 +6°C° 0 mm 0 mps 747 mmHg 87%

Pasado mañana, 17 Agosto, Lunes

Tiempo Temperatura Precipitaciones Viento Presión Humedad
00:00 +6°C° 0 mm 0 mps 747 mmHg 87%
01:00 +6°C° 0 mm 0 mps 747 mmHg 87%
02:00 +6°C° 0 mm 0 mps 747 mmHg 87%
03:00 +6°C° 0 mm 0 mps 747 mmHg 87%
04:00 +5°C° 0 mm 0 mps 747 mmHg 87%
05:00 +6°C° 0 mm 0 mps 747 mmHg 86%
06:00 +6°C° 0 mm 0 mps 747 mmHg 86%
07:00 +6°C° 0 mm 0 mps 747 mmHg 86%
08:00 +8°C° 0 mm 0 mps 747 mmHg 79%
09:00 +12°C° 0 mm 1 mps 747 mmHg 73%
10:00 +14°C° 0 mm 1 mps 747 mmHg 67%
11:00 +15°C° 0 mm 1 mps 747 mmHg 65%
12:00 +16°C° 0 mm 2 mps 746 mmHg 64%
13:00 +17°C° 0 mm 2 mps 746 mmHg 62%
14:00 +16°C° 0 mm 2 mps 746 mmHg 66%
15:00 +16°C° 0 mm 2 mps 746 mmHg 70%
16:00 +15°C° 0 mm 2 mps 746 mmHg 74%
17:00 +13°C° 0 mm 2 mps 746 mmHg 80%
18:00 +11°C° 0 mm 1 mps 746 mmHg 86%
19:00 +8°C° 0 mm 1 mps 747 mmHg 92%
20:00 +8°C° 0 mm 1 mps 747 mmHg 92%
21:00 +7°C° 0 mm 0 mps 747 mmHg 93%
22:00 +6°C° 0 mm 0 mps 747 mmHg 93%
23:00 +6°C° 0 mm 0 mps 747 mmHg 93%

18 Agosto, Martes

Tiempo Temperatura Precipitaciones Viento Presión Humedad
00:00 +6°C° 0 mm 0 mps 747 mmHg 94%
01:00 +5°C° 0 mm 0 mps 747 mmHg 94%
02:00 +5°C° 0 mm 0 mps 747 mmHg 95%
03:00 +5°C° 0 mm 0 mps 747 mmHg 95%
04:00 +5°C° 0 mm 0 mps 747 mmHg 95%
05:00 +6°C° 0 mm 0 mps 747 mmHg 95%
06:00 +6°C° 0 mm 0 mps 748 mmHg 94%
07:00 +7°C° 0 mm 0 mps 748 mmHg 94%
08:00 +8°C° 0 mm 0 mps 748 mmHg 91%
09:00 +10°C° 0 mm 1 mps 748 mmHg 88%
10:00 +11°C° 0 mm 1 mps 748 mmHg 85%
11:00 +11°C° 0 mm 1 mps 748 mmHg 83%
12:00 +11°C° 0 mm 1 mps 748 mmHg 81%
13:00 +12°C° 0 mm 1 mps 748 mmHg 79%
14:00 +12°C° 0 mm 1 mps 748 mmHg 79%
15:00 +12°C° 0 mm 1 mps 749 mmHg 79%
16:00 +12°C° 0 mm 1 mps 749 mmHg 79%
17:00 +10°C° 0 mm 1 mps 749 mmHg 82%
18:00 +9°C° 0 mm 1 mps 750 mmHg 86%
19:00 +7°C° 0 mm 0 mps 750 mmHg 90%
20:00 +7°C° 0 mm 0 mps 750 mmHg 90%
21:00 +7°C° 0 mm 0 mps 750 mmHg 91%
22:00 +7°C° 0 mm 1 mps 751 mmHg 91%
23:00 +7°C° 0 mm 0 mps 751 mmHg 91%

19 Agosto, Miércoles

Tiempo Temperatura Precipitaciones Viento Presión Humedad
00:00 +7°C° 0 mm 0 mps 751 mmHg 90%
01:00 +7°C° 0 mm 0 mps 751 mmHg 90%
02:00 +7°C° 0 mm 0 mps 751 mmHg 91%
03:00 +6°C° 0 mm 0 mps 750 mmHg 91%
04:00 +6°C° 0 mm 0 mps 750 mmHg 92%
05:00 +6°C° 0 mm 0 mps 750 mmHg 92%
06:00 +6°C° 0 mm 0 mps 751 mmHg 93%
07:00 +6°C° 0 mm 0 mps 751 mmHg 93%
08:00 +9°C° 0 mm 1 mps 751 mmHg 87%
09:00 +11°C° 0 mm 1 mps 751 mmHg 81%
10:00 +12°C° 0 mm 1 mps 751 mmHg 75%
11:00 +13°C° 0 mm 2 mps 750 mmHg 72%
12:00 +14°C° 0 mm 2 mps 750 mmHg 70%
13:00 +14°C° 0 mm 2 mps 750 mmHg 67%
14:00 +14°C° 0 mm 2 mps 750 mmHg 68%
15:00 +14°C° 0 mm 2 mps 750 mmHg 70%
16:00 +14°C° 0 mm 2 mps 750 mmHg 72%
17:00 +12°C° 0 mm 1 mps 750 mmHg 77%
18:00 +10°C° 0 mm 1 mps 751 mmHg 83%
19:00 +7°C° 0 mm 0 mps 751 mmHg 89%
20:00 +7°C° 0 mm 0 mps 751 mmHg 89%
21:00 +7°C° 0 mm 0 mps 751 mmHg 89%
22:00 +6°C° 0 mm 0 mps 751 mmHg 89%
23:00 +7°C° 0 mm 1 mps 751 mmHg 88%

20 Agosto, Jueves

Tiempo Temperatura Precipitaciones Viento Presión Humedad
00:00 +7°C° 0 mm 1 mps 751 mmHg 88%
01:00 +7°C° 0 mm 1 mps 751 mmHg 87%
02:00 +7°C° 0 mm 1 mps 751 mmHg 86%
03:00 +7°C° 0 mm 1 mps 750 mmHg 85%
04:00 +7°C° 0 mm 1 mps 750 mmHg 84%
05:00 +7°C° 0 mm 1 mps 750 mmHg 82%
06:00 +7°C° 0 mm 1 mps 750 mmHg 80%
07:00 +8°C° 0 mm 1 mps 750 mmHg 77%
08:00 +10°C° 0 mm 1 mps 750 mmHg 70%
09:00 +13°C° 0 mm 1 mps 750 mmHg 62%
10:00 +16°C° 0 mm 1 mps 750 mmHg 54%
11:00 +18°C° 0 mm 1 mps 750 mmHg 53%
12:00 +19°C° 0 mm 1 mps 749 mmHg 51%
13:00 +19°C° 0 mm 2 mps 749 mmHg 49%
14:00 +18°C° 0 mm 2 mps 749 mmHg 54%
15:00 +19°C° 0 mm 1 mps 749 mmHg 59%
16:00 +19°C° 0 mm 1 mps 749 mmHg 64%
17:00 +15°C° 0 mm 1 mps 749 mmHg 69%
18:00 +12°C° 0 mm 0 mps 749 mmHg 74%
19:00 +10°C° 0 mm 0 mps 749 mmHg 79%
20:00 +9°C° 0 mm 0 mps 749 mmHg 78%
21:00 +10°C° 0 mm 1 mps 749 mmHg 76%
22:00 +10°C° 0 mm 1 mps 749 mmHg 74%
23:00 +10°C° 0 mm 1 mps 749 mmHg 72%
Mostrar más